| time (UTC) | temp C | wind direction | speed KPH | gust KPH | rain 1hr cm | rain 24hr cm | rain mn cm | humidity % | barometer mb |
| 20260903235910 | 18 | 0.0 | 0.0 | 0.00 | 0.00 | 0.00 | 91 | 1021.3 | |
| 20260903234908 | 18 | 0.0 | 0.0 | 0.00 | 0.00 | 0.00 | 92 | 1021.4 | |
| 20260903233906 | 18 | 0.0 | 0.0 | 0.00 | 0.00 | 0.00 | 92 | 1021.6 | |
| 20260903232906 | 18 | 0.0 | 0.0 | 0.00 | 0.00 | 0.00 | 91 | 1021.7 | |
| 20260903231904 | 18 | 0.0 | 0.0 | 0.00 | 0.00 | 0.00 | 91 | 1021.7 | |
| 20260903230904 | 18 | 0.0 | 0.0 | 0.00 | 0.00 | 0.00 | 92 | 1021.6 | |
| 20260903225904 | 19 | 0.0 | 0.0 | 0.00 | 0.00 | 0.00 | 92 | 1021.7 | |
| 20260903224905 | 19 | 0.0 | 0.0 | 0.00 | 0.00 | 0.00 | 92 | 1021.9 | |
| 20260903223906 | 19 | 0.0 | 0.0 | 0.00 | 0.00 | 0.00 | 92 | 1022.2 | |
| 20260903222911 | 19 | 0.0 | 0.0 | 0.00 | 0.00 | 0.00 | 93 | 1022.1 | |
| 20260903220907 | 19 | 0.0 | 0.0 | 0.00 | 0.00 | 0.00 | 92 | 1022.4 | |
| 20260903215905 | 19 | 0.0 | 0.0 | 0.00 | 0.00 | 0.00 | 92 | 1022.4 | |
| 20260903214906 | 19 | 0.0 | 0.0 | 0.00 | 0.00 | 0.00 | 89 | 1022.3 | |
| 20260903213904 | 19 | 0.0 | 0.0 | 0.00 | 0.00 | 0.00 | 88 | 1022.4 | |
| 20260903212904 | 19 | 0.0 | 0.0 | 0.00 | 0.00 | 0.00 | 88 | 1022.5 | |
| 20260903211904 | 19 | 0.0 | 0.0 | 0.00 | 0.00 | 0.00 | 89 | 1022.5 | |
| 20260903210910 | 19 | 0.0 | 0.0 | 0.00 | 0.00 | 0.00 | 88 | 1022.5 | |
| 20260903204904 | 19 | 0.0 | 0.0 | 0.00 | 0.00 | 0.00 | 89 | 1022.3 | |
| 20260903203905 | 19 | 0.0 | 0.0 | 0.00 | 0.00 | 0.00 | 89 | 1022.4 | |
| 20260903202904 | 19 | 0.0 | 0.0 | 0.00 | 0.00 | 0.00 | 90 | 1022.2 | |
| 20260903201904 | 20 | 0.0 | 0.0 | 0.00 | 0.00 | 0.00 | 90 | 1022.2 | |
| 20260903200904 | 20 | 0.0 | 0.0 | 0.00 | 0.00 | 0.00 | 89 | 1022.3 | |
| 20260903195904 | 20 | 0.0 | 0.0 | 0.00 | 0.00 | 0.00 | 88 | 1022.2 | |
| 20260903194905 | 19 | 0.0 | 0.0 | 0.00 | 0.00 | 0.00 | 88 | 1022.3 | |
| 20260903193906 | 20 | 0.0 | 0.0 | 0.00 | 0.00 | 0.00 | 89 | 1022.6 | |
| 20260903192905 | 20 | 0.0 | 0.0 | 0.00 | 0.00 | 0.00 | 87 | 1022.6 | |
| 20260903191905 | 20 | 0.0 | 0.0 | 0.00 | 0.00 | 0.00 | 88 | 1022.5 | |
| 20260903190904 | 20 | 0.0 | 0.0 | 0.00 | 0.00 | 0.00 | 87 | 1022.3 | |
| 20260903185904 | 20 | 0.0 | 0.0 | 0.00 | 0.00 | 0.00 | 86 | 1022.4 | |
| 20260903184904 | 20 | 0.0 | 0.0 | 0.00 | 0.00 | 0.00 | 87 | 1022.3 | |
| 20260903183909 | 20 | 0.0 | 0.0 | 0.00 | 0.00 | 0.00 | 85 | 1022.1 | |
| 20260903175908 | 21 | 0.0 | 0.0 | 0.00 | 0.00 | 0.00 | 83 | 1022.1 | |
| 20260903174908 | 21 | 0.0 | 0.0 | 0.00 | 0.00 | 0.00 | 81 | 1022.2 | |
| 20260903173904 | 21 | 0.0 | 0.0 | 0.00 | 0.00 | 0.00 | 81 | 1022.0 | |
| 20260903172913 | 21 | 0.0 | 0.0 | 0.00 | 0.00 | 0.00 | 80 | 1022.0 | |
| 20260903170905 | 21 | 0.0 | 0.0 | 0.00 | 0.00 | 0.00 | 79 | 1021.9 | |
| 20260903165904 | 21 | 0.0 | 0.0 | 0.00 | 0.00 | 0.00 | 79 | 1022.0 | |
| 20260903164904 | 21 | 0.0 | 0.0 | 0.00 | 0.00 | 0.00 | 77 | 1021.8 | |
| 20260903163905 | 21 | 0.0 | 0.0 | 0.00 | 0.00 | 0.00 | 77 | 1021.9 | |
| 20260903162906 | 21 | 0.0 | 0.0 | 0.00 | 0.00 | 0.00 | 77 | 1022.0 | |
| 20260903161910 | 21 | 0.0 | 0.0 | 0.00 | 0.00 | 0.00 | 77 | 1022.0 | |
| 20260903160904 | 21 | 0.0 | 0.0 | 0.00 | 0.00 | 0.00 | 78 | 1022.0 | |
| 20260903155904 | 21 | 0.0 | 0.0 | 0.00 | 0.00 | 0.00 | 78 | 1021.9 | |
| 20260903154905 | 22 | 0.0 | 0.0 | 0.00 | 0.00 | 0.00 | 73 | 1021.7 | |
| 20260903153910 | 22 | 0.0 | 0.0 | 0.00 | 0.00 | 0.00 | 64 | 1021.6 | |
| 20260903151905 | 23 | 0.0 | 0.0 | 0.00 | 0.00 | 0.00 | 60 | 1021.3 | |
| 20260903150909 | 24 | 0.0 | 0.0 | 0.00 | 0.00 | 0.00 | 58 | 1021.2 | |
| 20260903144904 | 24 | 0.0 | 0.0 | 0.00 | 0.00 | 0.00 | 57 | 1021.2 | |
| 20260903143905 | 24 | 0.0 | 0.0 | 0.00 | 0.00 | 0.00 | 57 | 1021.1 | |
| 20260903142911 | 25 | 0.0 | 0.0 | 0.00 | 0.00 | 0.00 | 56 | 1021.2 | |
| 20260903140904 | 25 | 0.0 | 0.0 | 0.00 | 0.00 | 0.00 | 56 | 1021.2 | |
| 20260903135905 | 23 | 0.0 | 0.0 | 0.00 | 0.00 | 0.00 | 60 | 1021.4 | |
| 20260903134905 | 21 | 0.0 | 0.0 | 0.00 | 0.00 | 0.00 | 64 | 1021.5 | |
| 20260903133904 | 21 | 0.0 | 0.0 | 0.00 | 0.00 | 0.00 | 64 | 1021.7 | |
| 20260903132904 | 21 | 0.0 | 0.0 | 0.00 | 0.00 | 0.00 | 64 | 1021.8 | |
| 20260903131905 | 21 | 0.0 | 0.0 | 0.00 | 0.00 | 0.00 | 65 | 1021.8 | |
| 20260903130905 | 21 | 0.0 | 0.0 | 0.00 | 0.00 | 0.00 | 65 | 1021.8 | |
| 20260903125905 | 21 | 0.0 | 0.0 | 0.00 | 0.00 | 0.00 | 64 | 1021.9 | |
| 20260903124905 | 21 | 0.0 | 0.0 | 0.00 | 0.00 | 0.00 | 63 | 1021.9 | |
| 20260903123904 | 21 | 0.0 | 0.0 | 0.00 | 0.00 | 0.00 | 65 | 1021.8 | |
| 20260903122908 | 21 | 0.0 | 0.0 | 0.00 | 0.00 | 0.00 | 69 | 1021.6 | |
| 20260903120905 | 20 | 0.0 | 0.0 | 0.00 | 0.00 | 0.00 | 83 | 1021.9 | |
| 20260903115909 | 20 | 0.0 | 0.0 | 0.00 | 0.00 | 0.00 | 83 | 1022.1 | |
| 20260903113904 | 19 | 0.0 | 0.0 | 0.00 | 0.00 | 0.00 | 86 | 1022.3 | |
| 20260903112909 | 19 | 0.0 | 0.0 | 0.00 | 0.00 | 0.00 | 82 | 1022.4 | |
| 20260903110906 | 18 | 0.0 | 0.0 | 0.00 | 0.00 | 0.00 | 81 | 1022.6 | |
| 20260903105905 | 18 | 0.0 | 0.0 | 0.00 | 0.00 | 0.00 | 79 | 1022.6 | |
| 20260903104906 | 18 | 0.0 | 0.0 | 0.00 | 0.00 | 0.00 | 77 | 1022.6 | |
| 20260903103905 | 18 | 0.0 | 0.0 | 0.00 | 0.00 | 0.00 | 74 | 1022.3 | |
| 20260903102906 | 18 | 0.0 | 0.0 | 0.00 | 0.00 | 0.00 | 72 | 1021.9 | |
| 20260903101906 | 18 | 0.0 | 0.0 | 0.00 | 0.00 | 0.00 | 72 | 1022.7 | |
| 20260903100905 | 18 | 0.0 | 0.0 | 0.00 | 0.00 | 0.00 | 72 | 1022.7 | |
| 20260903095904 | 18 | 0.0 | 0.0 | 0.00 | 0.00 | 0.00 | 72 | 1022.8 | |
| 20260903094904 | 18 | 0.0 | 0.0 | 0.00 | 0.00 | 0.00 | 72 | 1022.9 | |
| 20260903093904 | 18 | 0.0 | 0.0 | 0.00 | 0.00 | 0.00 | 73 | 1023.0 | |
| 20260903092909 | 18 | 0.0 | 0.0 | 0.00 | 0.00 | 0.00 | 74 | 1023.1 | |
| 20260903085905 | 18 | 0.0 | 0.0 | 0.00 | 0.00 | 0.00 | 72 | 1023.1 | |
| 20260903084906 | 18 | 0.0 | 0.0 | 0.00 | 0.00 | 0.00 | 68 | 1023.2 | |
| 20260903083906 | 18 | 0.0 | 0.0 | 0.00 | 0.00 | 0.00 | 69 | 1023.3 | |
| 20260903082906 | 18 | 0.0 | 0.0 | 0.00 | 0.00 | 0.00 | 72 | 1023.4 | |
| 20260903081905 | 17 | 0.0 | 0.0 | 0.00 | 0.00 | 0.00 | 73 | 1023.5 | |
| 20260903080904 | 17 | 0.0 | 0.0 | 0.00 | 0.00 | 0.00 | 73 | 1023.6 | |
| 20260903075904 | 17 | 0.0 | 0.0 | 0.00 | 0.00 | 0.00 | 73 | 1023.4 | |
| 20260903074903 | 17 | 0.0 | 0.0 | 0.00 | 0.00 | 0.00 | 73 | 1023.3 | |
| 20260903073905 | 17 | 0.0 | 0.0 | 0.00 | 0.00 | 0.00 | 73 | 1023.2 | |
| 20260903072905 | 17 | 0.0 | 0.0 | 0.00 | 0.00 | 0.00 | 73 | 1023.4 | |
| 20260903071905 | 17 | 0.0 | 0.0 | 0.00 | 0.00 | 0.00 | 74 | 1023.3 | |
| 20260903070906 | 16 | 0.0 | 0.0 | 0.00 | 0.00 | 0.00 | 76 | 1023.7 | |
| 20260903065906 | 16 | 0.0 | 0.0 | 0.00 | 0.00 | 0.00 | 75 | 1023.5 | |
| 20260903064907 | 16 | 0.0 | 0.0 | 0.00 | 0.00 | 0.00 | 75 | 1023.5 | |
| 20260903063907 | 16 | 0.0 | 0.0 | 0.00 | 0.00 | 0.00 | 76 | 1023.4 | |
| 20260903062906 | 16 | 0.0 | 0.0 | 0.00 | 0.00 | 0.00 | 75 | 1023.4 | |
| 20260903061909 | 16 | 0.0 | 0.0 | 0.00 | 0.00 | 0.00 | 75 | 1023.3 | |
| 20260903060907 | 16 | 0.0 | 0.0 | 0.00 | 0.00 | 0.00 | 76 | 1023.8 | |
| 20260903055907 | 16 | 0.0 | 0.0 | 0.00 | 0.00 | 0.00 | 76 | 1023.9 | |
| 20260903054906 | 16 | 0.0 | 0.0 | 0.00 | 0.00 | 0.00 | 76 | 1024.0 | |
| 20260903053904 | 16 | 0.0 | 0.0 | 0.00 | 0.00 | 0.00 | 76 | 1024.0 | |
| 20260903052904 | 16 | 0.0 | 0.0 | 0.00 | 0.00 | 0.00 | 76 | 1023.6 | |
| 20260903051904 | 16 | 0.0 | 0.0 | 0.00 | 0.00 | 0.00 | 76 | 1023.7 | |
| 20260903050904 | 16 | 0.0 | 0.0 | 0.00 | 0.00 | 0.00 | 75 | 1023.8 | |
| 20260903045905 | 15 | 0.0 | 0.0 | 0.00 | 0.00 | 0.00 | 76 | 1024.1 | |
| 20260903044905 | 15 | 0.0 | 0.0 | 0.00 | 0.00 | 0.00 | 76 | 1024.0 | |
| 20260903043909 | 15 | 0.0 | 0.0 | 0.00 | 0.00 | 0.00 | 75 | 1024.1 | |
| 20260903041906 | 15 | 0.0 | 0.0 | 0.00 | 0.00 | 0.00 | 75 | 1024.0 | |
| 20260903040906 | 15 | 0.0 | 0.0 | 0.00 | 0.00 | 0.00 | 74 | 1024.0 | |
| 20260903035904 | 15 | 0.0 | 0.0 | 0.00 | 0.00 | 0.00 | 75 | 1024.0 | |
| 20260903034904 | 15 | 0.0 | 0.0 | 0.00 | 0.00 | 0.00 | 74 | 1023.9 | |
| 20260903033906 | 15 | 0.0 | 0.0 | 0.00 | 0.00 | 0.00 | 75 | 1024.1 | |
| 20260903032910 | 15 | 0.0 | 0.0 | 0.00 | 0.00 | 0.00 | 75 | 1024.1 | |
| 20260903030909 | 15 | 0.0 | 0.0 | 0.00 | 0.00 | 0.00 | 75 | 1024.1 | |
| 20260903024905 | 15 | 0.0 | 0.0 | 0.00 | 0.00 | 0.00 | 74 | 1024.2 | |
| 20260903023906 | 15 | 0.0 | 0.0 | 0.00 | 0.00 | 0.00 | 74 | 1024.4 | |
| 20260903022908 | 15 | 0.0 | 0.0 | 0.00 | 0.00 | 0.00 | 74 | 1024.4 | |
| 20260903021906 | 16 | 0.0 | 0.0 | 0.00 | 0.00 | 0.00 | 73 | 1024.4 | |
| 20260903020904 | 16 | 0.0 | 0.0 | 0.00 | 0.00 | 0.00 | 73 | 1024.3 | |
| 20260903015904 | 16 | 0.0 | 0.0 | 0.00 | 0.00 | 0.00 | 73 | 1024.4 | |
| 20260903014904 | 16 | 0.0 | 0.0 | 0.00 | 0.00 | 0.00 | 73 | 1024.4 | |
| 20260903013904 | 16 | 0.0 | 0.0 | 0.00 | 0.00 | 0.00 | 73 | 1024.4 | |
| 20260903012904 | 16 | 0.0 | 0.0 | 0.00 | 0.00 | 0.00 | 73 | 1024.5 | |
| 20260903011908 | 16 | 0.0 | 0.0 | 0.00 | 0.00 | 0.00 | 72 | 1024.5 | |
| 20260903005904 | 16 | 0.0 | 0.0 | 0.00 | 0.00 | 0.00 | 72 | 1024.4 | |
| 20260903004906 | 16 | 0.0 | 0.0 | 0.00 | 0.00 | 0.00 | 72 | 1024.6 | |
| 20260903003907 | 16 | 0.0 | 0.0 | 0.00 | 0.00 | 0.00 | 71 | 1024.3 | |
| 20260903002904 | 16 | 0.0 | 0.0 | 0.00 | 0.00 | 0.00 | 72 | 1024.4 | |
| 20260903001904 | 16 | 0.0 | 0.0 | 0.00 | 0.00 | 0.00 | 72 | 1024.6 | |
| 20260903000904 | 16 | 0.0 | 0.0 | 0.00 | 0.00 | 0.00 | 72 | 1024.6 |